Kenosha, WI

12:00 PM CDT on May 26, 2017 (GMT -0500)
Kenosha Regional

Weather History for KENW - February, 2013

Change the Weather History Date:

Wednesday, February 27, 2013

  Actual Average Record
Temperature  
Mean Temperature 32 °F -  
Max Temperature 35 °F 37 °F 67 °F (1976)
Min Temperature 30 °F 22 °F -8 °F (2015)
Degree Days  
Heating Degree Days 32    
Moisture  
Dew Point 30 °F    
Average Humidity 88    
Maximum Humidity 93    
Minimum Humidity 81    
Precipitation  
Precipitation 0.22 in - - ()
Sea Level Pressure  
Sea Level Pressure 29.60 in    
Wind  
Wind Speed 13 mph (North)    
Max Wind Speed 15 mph    
Max Gust Speed 22 mph    
Visibility 2 miles    
Events Fog , Snow    
Averages and records for this station are not official NWS values.
T = Trace of Precipitation, MM = Missing Value Source: NWS Daily Summary

Daily Weather History Graph

Daily Weather History Graph

Search for Another Location

Airport or City:

Trip Planner

Search our weather history database for the weather conditions in past years. The results will help you decide how hot, cold, wet, or windy it might be!

Date:

Astronomy

Feb. 27, 2013 Rise Set
Actual Time 6:30 AM CST 5:39 PM CST
Civil Twilight 6:01 AM CST 6:07 PM CST
Nautical Twilight 5:29 AM CST 6:40 PM CST
Astronomical Twilight 4:56 AM CST 7:12 PM CST
Moon 8:04 PM CST (2/27) 7:01 AM CST (2/27)
Length of Visible Light 12h 05m
Length of Day
11h 09m
Waning Gibbous, 96% of the Moon is Illuminated
Feb 27
Waning Gibbous
Mar 4
Last Quarter
Mar 11
New
Mar 19
First Quarter
Mar 27
Full

Hourly Weather History & Observations

Time (CST) Temp. Windchill Dew Point Humidity Pressure Visibility Wind Dir Wind Speed Gust Speed Precip Events Conditions
12:53 AM 33.1 °F 23.0 °F 30.9 °F 92% 29.57 in 0.8 mi NNE 15.0 mph - 0.02 in Snow Light Snow
1:53 AM 33.1 °F 23.0 °F 30.9 °F 92% 29.56 in 0.8 mi NNE 15.0 mph 20.7 mph 0.03 in Snow Light Snow
2:23 AM 33.8 °F 23.9 °F 30.2 °F 87% 29.53 in 1.0 mi NNE 15.0 mph - 0.00 in Snow Light Snow
2:53 AM 33.1 °F 23.9 °F 30.9 °F 92% 29.55 in 1.0 mi NNE 12.7 mph - 0.01 in Snow Light Snow
3:53 AM 33.1 °F 23.4 °F 30.9 °F 92% 29.55 in 1.0 mi NNE 13.8 mph 21.9 mph 0.01 in Snow Light Snow
4:29 AM 33.8 °F 24.3 °F 30.2 °F 87% 29.53 in 2.5 mi NNE 13.8 mph - 0.01 in Snow Light Snow
4:39 AM 33.8 °F 23.9 °F 30.2 °F 87% 29.53 in 3.0 mi NNE 15.0 mph - 0.01 in Snow Light Snow
4:53 AM 33.1 °F 23.4 °F 30.9 °F 92% 29.55 in 3.0 mi NNE 13.8 mph - 0.01 in Snow Light Snow
5:28 AM 33.8 °F 24.8 °F 30.2 °F 87% 29.53 in 1.8 mi NNE 12.7 mph - 0.00 in Snow Light Snow
5:41 AM 33.8 °F - 30.2 °F 87% 29.53 in - North - - 0.00 in   Unknown
5:53 AM 33.1 °F - 30.9 °F 92% 29.56 in - North - - 0.00 in   Unknown
6:06 AM 33.8 °F 24.8 °F 30.2 °F 87% 29.54 in 1.5 mi North 12.7 mph - 0.00 in Snow Light Snow
6:27 AM 33.8 °F 24.8 °F 30.2 °F 87% 29.53 in 1.8 mi North 12.7 mph - 0.00 in Snow Light Snow
6:34 AM 33.8 °F 25.3 °F 30.2 °F 87% 29.53 in 2.5 mi North 11.5 mph - 0.00 in Snow Light Snow
6:49 AM 33.8 °F 25.3 °F 30.2 °F 87% 29.54 in 1.0 mi North 11.5 mph - 0.00 in Snow Light Snow
6:53 AM 33.1 °F 24.9 °F 30.9 °F 92% 29.56 in 1.0 mi North 10.4 mph - 0.01 in Snow Light Snow
7:25 AM 33.8 °F 25.8 °F 30.2 °F 87% 29.55 in 0.8 mi North 10.4 mph - 0.00 in Snow Light Snow
7:46 AM 33.8 °F 25.8 °F 30.2 °F 87% 29.55 in 0.8 mi North 10.4 mph - 0.00 in Snow Light Snow
7:53 AM 33.1 °F 24.9 °F 30.9 °F 92% 29.58 in 0.8 mi North 10.4 mph - 0.01 in Snow Light Snow
8:31 AM 30.2 °F 20.2 °F 28.4 °F 93% 29.56 in 0.5 mi NNW 12.7 mph - 0.01 in Fog , Snow Light Snow
9:07 AM 32.0 °F 23.6 °F 28.4 °F 87% 29.55 in 0.5 mi North 10.4 mph - 0.01 in Fog , Snow Light Snow
9:53 AM 32.0 °F 23.6 °F 30.0 °F 92% 29.58 in 0.8 mi North 10.4 mph - 0.01 in Snow Light Snow
10:24 AM 33.8 °F 26.4 °F 30.2 °F 87% 29.55 in 0.8 mi NNW 9.2 mph - 0.01 in Snow Light Snow
10:53 AM 33.1 °F 24.4 °F 30.0 °F 89% 29.58 in 0.5 mi NNW 11.5 mph - 0.02 in Fog , Snow Light Snow
11:53 AM 34.0 °F 26.0 °F 30.9 °F 89% 29.58 in 1.0 mi NNW 10.4 mph - 0.01 in Snow Light Snow
12:53 PM 34.0 °F 28.0 °F 32.0 °F 92% 29.57 in 1.0 mi NNW 6.9 mph - 0.02 in Snow Light Snow
12:54 PM 33.8 °F 27.0 °F 30.2 °F 87% 29.55 in 0.8 mi NNW 8.1 mph - 0.00 in Snow Light Snow
1:53 PM 35.1 °F 28.6 °F 30.9 °F 85% 29.59 in 1.5 mi North 8.1 mph - 0.01 in Snow Light Snow
2:19 PM 35.6 °F 28.0 °F 30.2 °F 81% 29.57 in 0.8 mi North 10.4 mph - 0.01 in Snow Light Snow
2:53 PM 34.0 °F 26.0 °F 30.9 °F 89% 29.60 in 0.8 mi North 10.4 mph - 0.02 in Snow Light Snow
3:53 PM 34.0 °F 25.0 °F 30.9 °F 89% 29.62 in 0.8 mi North 12.7 mph - 0.01 in Snow Light Snow
4:53 PM 34.0 °F 24.2 °F 30.9 °F 89% 29.63 in 1.5 mi North 15.0 mph - 0.01 in Snow Light Snow
5:51 PM 33.8 °F 24.8 °F 30.2 °F 87% 29.64 in 2.5 mi North 12.7 mph 21.9 mph 0.00 in   Overcast
5:53 PM 34.0 °F 25.5 °F 30.9 °F 89% 29.66 in 2.5 mi North 11.5 mph 21.9 mph 0.00 in   Overcast
6:53 PM 33.1 °F 23.9 °F 30.0 °F 89% 29.68 in 4.0 mi North 12.7 mph - N/A   Overcast
7:38 PM 33.8 °F 25.8 °F 30.2 °F 87% 29.66 in 1.2 mi NNW 10.4 mph - 0.01 in Snow Light Snow
8:53 PM 33.1 °F 24.4 °F 30.0 °F 89% 29.70 in 2.5 mi NNW 11.5 mph 19.6 mph 0.00 in Snow Light Snow
9:01 PM 33.8 °F 25.3 °F 30.2 °F 87% 29.68 in 3.0 mi NNW 11.5 mph - 0.00 in Snow Light Snow
9:07 PM 33.8 °F 24.8 °F 28.4 °F 81% 29.68 in 2.0 mi NNW 12.7 mph - 0.00 in Snow Light Snow
9:15 PM 32.0 °F 22.5 °F 28.4 °F 87% 29.68 in 1.5 mi NNW 12.7 mph - 0.00 in Snow Light Snow
9:22 PM 32.0 °F 22.5 °F 28.4 °F 87% 29.68 in 1.8 mi NNW 12.7 mph - 0.00 in Snow Light Snow
9:41 PM 33.8 °F 24.8 °F 28.4 °F 81% 29.68 in 2.5 mi NNW 12.7 mph - 0.00 in Snow Light Snow
9:53 PM 33.1 °F 24.4 °F 28.9 °F 85% 29.71 in 2.5 mi NNW 11.5 mph - 0.00 in Snow Light Snow
10:53 PM 33.1 °F 23.9 °F 30.0 °F 89% 29.72 in 1.8 mi NNW 12.7 mph - 0.00 in Snow Light Snow
11:04 PM 33.8 °F 24.8 °F 30.2 °F 87% 29.69 in 2.0 mi NNW 12.7 mph - 0.01 in Snow Light Snow
11:17 PM 33.8 °F 24.8 °F 30.2 °F 87% 29.70 in 3.0 mi NNW 12.7 mph - 0.01 in Snow Light Snow
11:27 PM 33.8 °F 25.8 °F 30.2 °F 87% 29.70 in 2.0 mi NNW 10.4 mph - 0.01 in Snow Light Snow
11:53 PM 33.1 °F 23.9 °F 30.0 °F 89% 29.72 in 2.0 mi NNW 12.7 mph - 0.01 in Snow Light Snow